This is the latest recevied weather packets stored in our database for station/object W3TMB. If no packets are shown the sender has not sent any weather packets the latest 10 day(s).
| Time | Temp. | Humidity | Pressure | Rain* | Wind** | Luminosity | Snow |
|---|---|---|---|---|---|---|---|
| 1777988215 | 20° C | 73% | 1005.7 hPa | 0 mm | - | 493 W/m² | - |
| 1777987911 | 19.44° C | 74% | 1005.4 hPa | 0 mm | - | 478 W/m² | - |
| 1777987607 | 18.33° C | 76% | 1005.7 hPa | 0 mm | - | 472 W/m² | - |
| 1777987305 | 18.33° C | 78% | 1005.8 hPa | 0 mm | - | 465 W/m² | - |
| 1777987002 | 18.33° C | 77% | 1005.5 hPa | 0 mm | - | 457 W/m² | - |
| 1777986699 | 18.33° C | 76% | 1005.8 hPa | 0 mm | - | 388 W/m² | - |
| 1777986397 | 17.78° C | 78% | 1005.7 hPa | 0 mm | - | 369 W/m² | - |
| 1777986096 | 17.78° C | 78% | 1005.8 hPa | 0 mm | - | 356 W/m² | - |
| 1777985791 | 16.67° C | 79% | 1005.8 hPa | 0 mm | - | 375 W/m² | - |
| 1777985489 | 16.11° C | 81% | 1006 hPa | 0 mm | - | 321 W/m² | - |
| 1777985185 | 16.67° C | 80% | 1006 hPa | 0 mm | - | 305 W/m² | - |
| 1777984882 | 16.11° C | 84% | 1006.4 hPa | 0 mm | - | 254 W/m² | - |
| 1777984578 | 15° C | 87% | 1006.2 hPa | 0 mm | - | 243 W/m² | - |
| 1777984275 | 13.89° C | 92% | 1006.4 hPa | 0 mm | - | 244 W/m² | - |
| 1777983971 | 12.78° C | 94% | 1006.3 hPa | 0 mm | - | 236 W/m² | - |
| 1777983669 | 12.78° C | 96% | 1006.5 hPa | 0 mm | - | 207 W/m² | - |
| 1777983365 | 12.22° C | 98% | 1006.6 hPa | 0 mm | - | 208 W/m² | - |
| 1777983062 | 11.67° C | 98% | 1006.5 hPa | 0 mm | - | 95 W/m² | - |
| 1777982758 | 11.67° C | 98% | 1006.5 hPa | 0 mm | - | 63 W/m² | - |
| 1777982454 | 11.67° C | 98% | 1006.4 hPa | 0 mm | - | 50 W/m² | - |
| 1777982148 | 11.67° C | 98% | 1006.2 hPa | 0 mm | - | 31 W/m² | - |
| 1777981846 | 11.67° C | 98% | 1006.7 hPa | 0 mm | - | 30 W/m² | - |
| 1777981543 | 11.11° C | 98% | 1006.3 hPa | 0 mm | - | 29 W/m² | - |
| 1777981239 | 11.11° C | 98% | 1006.4 hPa | 0 mm | - | 39 W/m² | - |
| 1777980936 | 11.11° C | 98% | 1006.4 hPa | 0 mm | - | 44 W/m² | - |
* Rain latest hour (hover to see other rain measurements)
** Current wind speed in m/s (hover to see current wind gust speed)